OV2-3

Satellite information

Favourite Embed

Satellite Type and Status

PAYLOADIN ORBIT

Key statistics

Satellite OV2-3 at a glance.

Uptime

21687

Days in orbit

Revolutions

≈ 5.2

Per day

Orbit

MEO

Medium Earth Orbit

Inclination

26.6

Latest

Satellite identification and parameters

Extended collection of information and parameters for OV2-3.

Object identification

Identified? True

Debris? False

Object name: OV2-3

International designator: 1965-108V

Object number (NORAD): 13912

Object ID (CCSDS): 13912

Country: UNITED STATES OF AMERICA (US)

Current information (Y/N): Y

RCS size: LARGE

Orbital parameters

Period: 276.869 minutes

Inclination: 26.5593 deg

SMA: 14071.599 km

Apoapsis: 15104.041 km

Periapsis: 282.887 km

RAAN: 150.0453 deg

Eccentricy: 0.5266336

Argument of periapsis: 154.5572 deg

Mean anomaly: 245.2308 deg

Mean motion: 5.20100878 rev/day

Mean motion (dot): 0.00009705 rev/day2

B* drag term: 0.0013036 1/REarth

Two-line elements (TLE)

Creation date: May 6, 2025, 3:54 a.m.

Reference frame: TEME

Reference center: EARTH

Epoch: May 5, 2025, 9:02 a.m. UTC

TLE line 0: 0 OV2-3

TLE line 1: 1 13912U 65108V 25125.37695928 .00009705 00000-0 13036-2 0 9996

TLE line 2: 2 13912 26.5593 150.0453 5266336 154.5572 245.2308 5.20100878549278

Live tracking on map

Real-time ground track for satellite OV2-3.

In-orbit conjunctions

There are no conjunctions computed for OV2-3, at the moment. Check back to stay up to date, as we update our databases every day.

Go to all conjunctions

Associated space launch

The OV2 (Orbiting Vehicle 2) series satellites were originally built for project ARENTS (Advanced Research Environmental Test Satellite), which was intended to obtain supporting data for the Vela program. After the cancellation of the ARENTS program, the already built hardware was reused for OV2, a low-cost series of experimental satellites, which were to be launched for free on Titan-3C test flights to very different orbits.

OV2-3 was lifted into orbit during the mission ‘Titan IIIC | OV2-3’, on board a Titan IIIC space rocket.

The launch took place on Dec. 21, 1965, 2 p.m. from Space Launch Complex 41.

For more information about the launch, click the button.

Launch to space Titan IIIC | OV2-3
Titan IIIC | OV2-3

Agency: N/A

Status: Launch Successful

Launch date: Dec. 21, 1965, 2 p.m. UTC

Rocket: Titan IIIC

Launch pad: Space Launch Complex 41

Location: Cape Canaveral SFS, FL, USA

...

Latest news about this satellite

There are no fresh news available about this satellite. Check back as we update our databases every day.


Newsletter sign-up

Weekly statistics, charts and insights to help you stay on top of the space industry.